Regional Weather Roundup
Issued by NWS

Home | Current Version | Previous Version | Graphics & Text | Print | Product List | Glossary On
Versions: 1 2 3 4 5 6 7 8 9 10 11 12 13 14 15 16 17 18 19 20 21 22 23 24 25 26 27 28 29 30 31 32 33 34 35 36 37 38 39 40 41 42 43 44 45 46 47 48 49 50
000
ASUS43 KLMK 222010
RWRKY
KENTUCKY REGIONAL WEATHER ROUNDUP
NATIONAL WEATHER SERVICE LOUISVILLE KY
300 PM EST MON JAN 22 2018

NOTE "FAIR" INDICATES FEW OR NO CLOUDS BELOW 12,000 FEET
WITH NO SIGNIFICANT WEATHER AND/OR OBSTRUCTIONS TO VISIBILITY.

KYZ001>023-026-027-061>063-070>075-222100-
WESTERN AND SOUTH CENTRAL KENTUCKY

CITY           SKY/WX    TMP DP  RH WIND       PRES   REMARKS
PADUCAH        FAIR      63  39  41 SW21G31   29.59F
HENDERSON      FAIR      59  53  80 S25       29.60F
OWENSBORO      CLOUDY    56  52  86 S20       29.61F
HOPKINSVILLE   PTSUNNY   60  55  83 S18G30    29.65F
BOWLING GREEN  CLOUDY    59  54  83 S16G25    29.72F
GLASGOW        NOT AVBL
$$

KYZ024-025-028>034-038-045-046-053-222100-
NORTH CENTRAL KENTUCKY

CITY           SKY/WX    TMP DP  RH WIND       PRES   REMARKS
LOUISVILLE/SDF PTSUNNY   57  50  77 S21G28    29.68F
LOUISVILLE/LOU CLOUDY    55  52  89 S13G23    29.70F
FORT KNOX      CLOUDY    54  52  94 S18G24    29.71F
$$

KYZ035>037-039>044-047>052-055>060-089>105-222100-
NORTHEAST KENTUCKY

CITY           SKY/WX    TMP DP  RH WIND       PRES   REMARKS
LEXINGTON      PTSUNNY   57  46  66 S18G30    29.76F
COVINGTON      LGT RAIN  53  50  89 S15       29.71F FOG
FRANKFORT      LGT RAIN  56  47  71 S14       29.73F
$$

KYZ054-064>069-076>088-106>120-222100-
SOUTHEAST KENTUCKY

CITY           SKY/WX    TMP DP  RH WIND       PRES   REMARKS
JACKSON        LGT RAIN  60  43  53 S8G24     29.87F
LONDON         LGT RAIN  57  47  69 S9        29.86F
SOMERSET       NOT AVBL
MIDDLESBORO    NOT AVBL
MONTICELLO     LGT RAIN  55  51  86 SE13G25   29.83F
$$




USA.gov is the U.S. government's official web portal to all federal, state and local government web resources and services.